�N����,����,�~����,�C��,���x,�C��,����,���ϕ���,�ő�u�ԕ���,�ő厞����,���˗�,�I�_���x,�n�����x,�ő啗���N��,DTYPE
"23/10/17","00:10",0.0,14.0,92.5,1008.6,285.7,1.2,1.8,322.6,0.00,12.8,18.7,"00:06:32",1
"23/10/17","00:20",0.0,13.9,92.8,1008.8,296.8,0.8,1.7,319.6,0.00,12.8,18.8,"00:11:20",1
"23/10/17","00:30",0.0,13.8,93.0,1009.0,308.5,1.3,2.2,328.0,0.00,12.7,18.7,"00:22:32",1
"23/10/17","00:40",0.0,13.9,93.4,1008.8,295.8,1.5,2.4,314.7,0.00,12.9,18.7,"00:39:10",1
"23/10/17","00:50",0.0,14.0,93.5,1008.8,299.6,1.0,2.4,346.2,0.00,13.0,18.5,"00:46:24",1
"23/10/17","01:00",0.0,13.8,93.6,1009.0,287.1,1.2,1.8,327.6,0.00,12.8,18.5,"00:52:32",1
"23/10/17","01:10",0.0,13.9,93.9,1009.0,301.5,1.2,2.6,339.3,0.00,13.0,18.5,"01:05:46",1
"23/10/17","01:20",0.0,14.0,94.1,1009.3,294.3,1.1,1.4,305.5,0.00,13.1,18.5,"01:11:44",1
"23/10/17","01:30",0.0,14.2,94.2,1009.3,292.7,1.3,1.9,319.1,0.00,13.3,18.3,"01:22:08",1
"23/10/17","01:40",0.0,14.2,94.3,1009.3,285.7,0.7,1.4,296.4,0.00,13.3,18.5,"01:30:02",1
"23/10/17","01:50",0.0,14.2,94.4,1009.5,280.9,1.0,2.4,321.0,0.00,13.4,18.5,"01:49:04",1
"23/10/17","02:00",0.0,14.2,94.6,1009.3,294.8,1.0,2.4,321.2,0.00,13.4,18.4,"01:54:56",1
"23/10/17","02:10",0.0,14.1,94.6,1009.3,303.1,1.1,1.8,299.1,0.00,13.3,18.3,"02:08:32",1
"23/10/17","02:20",0.0,13.9,94.8,1009.0,297.8,0.5,1.9,307.3,0.00,13.1,18.2,"02:16:08",1
"23/10/17","02:30",0.0,13.8,95.0,1009.0,298.6,1.3,2.0,318.3,0.00,13.1,18.5,"02:25:36",1
"23/10/17","02:40",0.0,14.0,95.1,1009.3,287.8,1.5,2.4,307.9,0.00,13.3,18.3,"02:36:32",1
"23/10/17","02:50",0.0,13.9,95.2,1009.3,291.0,1.3,2.4,318.1,0.00,13.2,18.1,"02:42:08",1
"23/10/17","03:00",0.0,13.9,95.2,1009.3,288.7,1.2,1.8,319.3,0.00,13.2,18.3,"02:52:40",1
"23/10/17","03:10",0.0,13.6,95.3,1009.3,308.2,0.3,0.9,278.4,0.00,12.9,18.3,"03:00:24",1
"23/10/17","03:20",0.0,13.3,95.4,1009.3,289.6,1.2,2.1,322.7,0.00,12.6,18.2,"03:19:42",1
"23/10/17","03:30",0.0,13.4,95.7,1009.3,294.4,1.6,2.4,322.3,0.00,12.8,18.2,"03:20:40",1
"23/10/17","03:40",0.0,13.6,95.7,1009.3,283.9,1.3,1.9,303.2,0.00,13.0,18.1,"03:38:12",1
"23/10/17","03:50",0.0,13.4,95.7,1009.3,296.0,0.6,1.6,275.7,0.00,12.8,18.0,"03:49:14",1
"23/10/17","04:00",0.0,13.1,95.8,1009.5,291.2,0.7,1.3,282.6,0.00,12.5,18.1,"03:50:14",1
"23/10/17","04:10",0.0,13.1,95.9,1009.7,295.7,1.3,1.9,307.2,0.00,12.5,17.9,"04:02:08",1
"23/10/17","04:20",0.0,13.1,96.0,1010.0,299.2,0.8,1.7,313.2,0.00,12.5,18.0,"04:19:38",1
"23/10/17","04:30",0.0,13.1,96.1,1009.7,311.4,1.5,1.7,313.3,0.00,12.5,18.0,"04:20:24",1
"23/10/17","04:40",0.0,12.9,96.1,1010.0,297.7,1.6,1.7,308.1,0.00,12.3,17.8,"04:35:34",1
"23/10/17","04:50",0.0,12.7,96.2,1010.0,301.4,1.5,1.6,312.7,0.00,12.2,17.9,"04:42:06",1
"23/10/17","05:00",0.0,12.6,96.4,1010.0,303.0,1.5,1.6,301.8,0.00,12.1,17.7,"04:54:44",1
"23/10/17","05:10",0.0,12.7,96.5,1010.0,319.9,1.4,1.4,313.2,0.00,12.2,17.8,"05:00:50",1
"23/10/17","05:20",0.0,12.7,96.4,1010.2,297.1,1.2,1.3,324.9,0.00,12.2,17.7,"05:10:36",1
"23/10/17","05:30",0.0,12.5,96.5,1010.4,291.8,1.2,1.4,287.3,0.00,12.0,17.9,"05:29:10",1
"23/10/17","05:40",0.0,12.3,96.6,1010.4,297.2,1.3,1.6,294.3,0.00,11.8,17.8,"05:36:56",1
"23/10/17","05:50",0.0,12.3,96.7,1010.0,311.9,1.6,1.9,313.9,0.00,11.8,17.7,"05:44:04",1
"23/10/17","06:00",0.0,12.3,96.8,1010.2,305.3,1.6,1.7,317.1,0.00,11.8,17.7,"05:58:36",1
"23/10/17","06:10",0.0,12.3,96.8,1010.2,311.9,2.0,2.2,321.0,0.00,11.8,17.7,"06:00:36",1
"23/10/17","06:20",0.0,12.4,97.0,1010.4,293.9,1.3,1.3,292.4,0.00,12.0,17.7,"06:16:08",1
"23/10/17","06:30",0.0,12.9,96.9,1010.4,289.5,0.8,1.9,311.6,0.00,12.5,17.5,"06:24:36",1
"23/10/17","06:40",0.0,13.1,97.0,1010.7,295.6,1.3,2.4,328.3,0.00,12.7,17.5,"06:38:30",1
"23/10/17","06:50",0.0,13.4,97.0,1010.7,321.5,1.5,2.1,330.0,0.01,13.0,17.4,"06:42:40",1
"23/10/17","07:00",0.0,13.9,97.0,1010.7,313.3,1.3,2.2,318.6,0.01,13.5,17.5,"06:56:48",1
"23/10/17","07:10",0.0,14.2,96.9,1010.9,296.8,1.0,1.7,318.1,0.01,13.8,17.3,"07:09:28",1
"23/10/17","07:20",0.0,14.5,96.9,1011.2,313.7,1.2,1.8,313.0,0.02,14.1,17.5,"07:10:56",1
"23/10/17","07:30",0.0,14.7,96.9,1010.9,299.6,1.0,1.3,314.1,0.03,14.3,17.4,"07:24:58",1
"23/10/17","07:40",0.0,15.1,96.9,1011.2,320.8,1.2,1.9,321.9,0.06,14.7,17.3,"07:39:34",1
"23/10/17","07:50",0.0,15.8,96.8,1011.2,306.6,0.8,1.6,321.1,0.07,15.3,17.4,"07:44:24",1
"23/10/17","08:00",0.0,16.2,96.6,1011.9,310.8,1.5,2.8,320.3,0.08,15.7,17.4,"07:53:20",1
"23/10/17","08:10",0.0,16.6,96.2,1011.4,296.9,1.5,2.6,309.3,0.08,16.0,17.5,"08:02:00",1
"23/10/17","08:20",0.0,16.5,95.8,1011.6,247.3,1.5,2.5,241.6,0.08,15.9,17.6,"08:10:48",1
"23/10/17","08:30",0.0,16.3,95.6,1011.6,250.4,1.2,1.9,257.8,0.09,15.6,17.6,"08:23:52",1
"23/10/17","08:40",0.0,17.1,95.0,1011.6,263.0,0.8,1.8,266.2,0.21,16.3,17.6,"08:33:52",1
"23/10/17","08:50",0.0,18.1,94.0,1011.6,237.4,0.7,1.6,204.4,0.23,17.2,17.6,"08:46:48",1
"23/10/17","09:00",0.0,18.1,92.5,1011.9,232.1,1.2,2.0,250.1,0.24,16.9,17.6,"08:52:00",1
"23/10/17","09:10",0.0,19.1,90.4,1011.9,212.0,0.8,1.9,130.1,0.27,17.5,17.7,"09:04:16",1
"23/10/17","09:20",0.0,19.8,85.7,1011.9,206.8,1.2,2.6,222.6,0.29,17.4,17.6,"09:19:04",1
"23/10/17","09:30",0.0,20.5,81.3,1011.6,200.2,1.3,2.7,225.5,0.31,17.2,17.7,"09:21:28",1
"23/10/17","09:40",0.0,21.0,77.7,1011.6,209.5,0.8,2.1,221.1,0.31,17.0,17.9,"09:39:20",1
"23/10/17","09:50",0.0,21.6,74.4,1010.9,249.4,0.7,1.9,232.0,0.28,16.9,17.8,"09:40:40",1
"23/10/17","10:00",0.0,22.3,71.5,1011.6,213.8,1.1,3.2,233.3,0.40,16.9,18.1,"09:53:44",1
"23/10/17","10:10",0.0,23.3,67.8,1010.9,73.2,0.8,2.0,105.7,0.39,17.1,18.0,"10:00:02",1
"23/10/17","10:20",0.0,23.2,65.4,1010.7,142.8,1.1,2.1,147.6,0.33,16.4,18.1,"10:12:32",1
"23/10/17","10:30",0.0,22.1,65.7,1010.9,316.4,1.3,3.1,341.9,0.08,15.4,18.0,"10:29:20",1
"23/10/17","10:40",0.0,22.2,67.9,1010.7,321.0,1.3,2.7,321.1,0.26,16.0,18.1,"10:32:48",1
"23/10/17","10:50",0.0,22.4,64.8,1010.2,250.3,1.5,2.9,244.9,0.29,15.5,18.3,"10:44:00",1
"23/10/17","11:00",0.0,22.3,65.5,1010.7,280.5,1.1,3.1,224.3,0.16,15.6,18.3,"10:57:52",1
"23/10/17","11:10",0.0,22.9,63.6,1010.2,319.4,1.6,3.7,345.6,0.43,15.7,18.5,"11:02:48",1
"23/10/17","11:20",0.0,22.9,61.3,1010.2,316.3,1.1,2.9,336.6,0.15,15.1,18.3,"11:11:28",1
"23/10/17","11:30",0.0,22.3,62.6,1010.4,335.7,1.3,3.4,356.0,0.06,14.9,18.6,"11:21:28",1
"23/10/17","11:40",0.0,21.9,64.1,1010.7,334.2,1.3,2.7,343.3,0.08,14.9,18.6,"11:34:16",1
"23/10/17","11:50",0.0,21.6,63.8,1010.7,332.1,2.0,4.2,345.0,0.08,14.5,18.6,"11:48:32",1
"23/10/17","12:00",0.0,22.9,62.3,1010.2,292.2,1.6,3.7,256.7,0.40,15.4,18.6,"11:56:16",1
"23/10/17","12:10",0.0,23.1,58.9,1010.2,289.0,1.3,2.8,324.1,0.21,14.7,18.6,"12:02:40",1
"23/10/17","12:20",0.0,22.1,61.0,1010.4,315.8,2.0,4.0,350.2,0.15,14.3,18.7,"12:11:52",1
"23/10/17","12:30",0.0,23.7,57.4,1010.0,334.6,1.3,2.9,343.8,0.43,14.8,19.0,"12:24:32",1
"23/10/17","12:40",0.0,24.2,57.9,1009.7,233.5,1.6,3.6,236.8,0.43,15.4,19.0,"12:32:00",1
"23/10/17","12:50",0.0,23.9,56.3,1009.5,247.7,1.1,3.4,219.1,0.27,14.7,19.1,"12:40:02",1
"23/10/17","13:00",0.0,24.1,56.0,1009.5,272.0,1.3,3.5,226.9,0.32,14.8,18.9,"12:52:00",1
"23/10/17","13:10",0.0,24.8,52.5,1009.3,337.7,1.3,3.3,318.5,0.39,14.5,19.0,"13:00:32",1
"23/10/17","13:20",0.0,25.6,49.2,1008.8,28.6,0.8,2.8,1.5,0.40,14.2,19.2,"13:19:12",1
"23/10/17","13:30",0.0,25.9,50.1,1008.8,306.9,1.0,2.5,24.6,0.39,14.8,19.2,"13:21:20",1
"23/10/17","13:40",0.0,25.2,49.2,1009.0,355.7,2.2,4.4,351.0,0.40,13.8,19.1,"13:30:32",1
"23/10/17","13:50",0.0,25.0,49.9,1008.8,5.5,2.1,5.6,344.1,0.30,13.9,19.2,"13:41:12",1
"23/10/17","14:00",0.0,24.8,50.6,1008.8,343.5,1.8,4.3,15.8,0.26,13.9,19.3,"13:51:28",1
"23/10/17","14:10",0.0,25.1,50.3,1008.6,351.6,1.6,3.4,5.9,0.30,14.1,19.4,"14:07:44",1
"23/10/17","14:20",0.0,25.3,50.0,1008.3,2.7,1.7,3.3,0.6,0.29,14.2,19.4,"14:10:08",1
"23/10/17","14:30",0.0,24.7,51.0,1008.8,349.8,2.3,5.0,352.3,0.24,13.9,19.5,"14:22:32",1
"23/10/17","14:40",0.0,24.9,51.1,1008.8,354.7,2.2,4.9,1.0,0.26,14.1,19.5,"14:38:24",1
"23/10/17","14:50",0.0,24.1,52.1,1009.0,3.7,1.7,4.1,25.2,0.09,13.7,19.8,"14:40:02",1
"23/10/17","15:00",0.0,23.0,54.4,1009.3,347.5,1.8,3.7,345.7,0.05,13.4,19.7,"14:59:04",1
"23/10/17","15:10",0.0,23.4,54.5,1009.5,347.0,2.2,4.2,342.5,0.11,13.8,19.6,"15:04:56",1
"23/10/17","15:20",0.0,23.7,53.1,1009.5,345.9,2.1,5.2,336.8,0.11,13.6,19.8,"15:16:56",1
"23/10/17","15:30",0.0,23.6,53.9,1009.5,347.3,2.0,4.0,348.5,0.12,13.8,19.8,"15:24:56",1
"23/10/17","15:40",0.0,23.6,52.6,1009.7,338.2,2.6,5.4,334.9,0.11,13.4,19.7,"15:33:28",1
"23/10/17","15:50",0.0,23.7,53.4,1009.3,349.7,1.8,3.5,333.4,0.09,13.7,19.9,"15:46:56",1
"23/10/17","16:00",0.0,23.4,52.4,1009.5,347.7,2.1,4.3,345.2,0.07,13.2,19.7,"15:55:04",1
"23/10/17","16:10",0.0,23.1,53.0,1009.7,345.1,2.1,4.1,346.3,0.05,13.0,19.7,"16:02:16",1
"23/10/17","16:20",0.0,23.1,53.7,1009.7,343.7,1.5,3.1,354.9,0.04,13.2,19.8,"16:10:32",1
"23/10/17","16:30",0.0,22.8,55.0,1009.7,344.9,1.7,3.5,350.0,0.02,13.3,19.7,"16:26:56",1
"23/10/17","16:40",0.0,22.1,56.7,1010.2,336.3,2.0,4.3,330.5,0.01,13.2,19.8,"16:34:00",1
"23/10/17","16:50",0.0,21.5,58.5,1010.7,342.4,1.7,2.9,337.7,0.00,13.1,19.7,"16:48:00",1
"23/10/17","17:00",0.0,20.9,60.0,1010.7,347.4,1.6,2.9,357.8,0.00,12.9,19.7,"16:51:44",1
"23/10/17","17:10",0.0,20.4,61.8,1011.2,340.7,1.8,4.0,355.0,0.00,12.9,19.8,"17:06:56",1
"23/10/17","17:20",0.0,19.8,64.2,1011.2,339.2,1.7,3.7,342.3,0.00,12.9,19.5,"17:14:48",1
"23/10/17","17:30",0.0,19.2,66.1,1011.4,335.0,1.5,3.2,344.2,0.00,12.8,19.6,"17:20:48",1
"23/10/17","17:40",0.0,18.7,67.3,1011.6,334.9,1.5,2.6,323.6,0.00,12.6,19.7,"17:31:44",1
"23/10/17","17:50",0.0,18.3,68.5,1012.1,332.1,1.1,1.8,317.8,0.00,12.4,19.5,"17:49:12",1
"23/10/17","18:00",0.0,17.8,69.9,1011.9,307.5,1.3,2.1,327.0,0.00,12.3,19.6,"17:59:20",1
"23/10/17","18:10",0.0,17.7,70.6,1012.3,325.0,1.8,3.2,344.1,0.00,12.3,19.4,"18:06:24",1
"23/10/17","18:20",0.0,17.4,70.8,1012.3,327.9,1.7,2.8,332.6,0.00,12.1,19.5,"18:18:16",1
"23/10/17","18:30",0.0,17.3,71.1,1012.6,316.0,1.6,2.7,324.7,0.00,12.1,19.4,"18:21:36",1
"23/10/17","18:40",0.0,17.1,71.6,1012.8,323.4,1.7,2.6,335.5,0.00,12.0,19.4,"18:34:24",1
"23/10/17","18:50",0.0,16.7,72.2,1012.8,324.6,1.3,1.8,299.2,0.00,11.7,19.3,"18:40:16",1
"23/10/17","19:00",0.0,16.4,73.1,1013.0,321.9,1.2,1.9,325.6,0.00,11.6,19.5,"18:57:12",1
"23/10/17","19:10",0.0,16.6,73.1,1012.8,344.3,1.5,2.1,1.9,0.00,11.8,19.2,"19:05:38",1
"23/10/17","19:20",0.0,16.8,72.1,1013.0,331.7,1.6,3.1,341.7,0.00,11.8,19.2,"19:14:06",1
"23/10/17","19:30",0.0,16.9,71.6,1013.3,322.1,1.6,3.2,343.6,0.00,11.8,19.2,"19:23:56",1
"23/10/17","19:40",0.0,16.1,72.5,1013.3,286.8,1.2,2.0,320.3,0.00,11.2,19.2,"19:34:08",1
"23/10/17","19:50",0.0,15.7,73.7,1013.5,279.6,1.0,1.3,307.8,0.00,11.1,18.9,"19:41:46",1
"23/10/17","20:00",0.0,15.3,75.1,1013.8,272.4,1.1,1.4,293.1,0.00,11.0,18.9,"19:59:52",1
"23/10/17","20:10",0.0,14.8,75.9,1013.8,270.1,0.5,1.0,273.4,0.00,10.6,18.7,"20:09:16",1
"23/10/17","20:20",0.0,14.2,77.6,1013.8,267.1,0.6,1.2,263.5,0.00,10.4,18.9,"20:12:40",1
"23/10/17","20:30",0.0,13.7,79.4,1014.0,272.5,1.0,1.3,266.7,0.00,10.2,18.8,"20:25:38",1
"23/10/17","20:40",0.0,13.8,81.1,1014.0,264.4,0.8,1.4,267.8,0.00,10.7,19.0,"20:32:00",1
"23/10/17","20:50",0.0,13.5,82.3,1014.2,292.0,1.0,1.4,315.9,0.00,10.6,18.8,"20:45:36",1
"23/10/17","21:00",0.0,13.2,83.3,1014.2,286.3,1.0,1.3,298.5,0.00,10.5,18.7,"20:57:42",1
"23/10/17","21:10",0.0,13.2,84.5,1014.5,297.5,1.2,1.8,283.6,0.00,10.7,18.7,"21:06:02",1
"23/10/17","21:20",0.0,13.3,85.3,1014.2,298.7,1.2,1.9,296.4,0.00,10.9,18.7,"21:14:02",1
"23/10/17","21:30",0.0,13.3,85.9,1014.5,297.7,1.2,2.0,313.9,0.00,11.0,18.7,"21:20:02",1
"23/10/17","21:40",0.0,13.7,86.3,1014.9,306.3,2.0,2.8,313.4,0.00,11.5,18.5,"21:36:10",1
"23/10/17","21:50",0.0,14.1,85.8,1014.7,312.1,1.8,3.6,327.5,0.00,11.8,18.5,"21:46:48",1
"23/10/17","22:00",0.0,14.2,85.1,1014.7,321.8,2.0,2.9,318.7,0.00,11.8,18.4,"21:57:44",1
"23/10/17","22:10",0.0,14.3,84.4,1014.9,321.1,1.6,2.6,329.5,0.00,11.7,18.3,"22:08:08",1
"23/10/17","22:20",0.0,14.3,84.0,1014.9,325.7,1.5,2.6,335.3,0.00,11.7,18.2,"22:15:46",1
"23/10/17","22:30",0.0,14.3,83.8,1014.9,320.4,1.5,2.7,314.0,0.00,11.6,18.3,"22:29:44",1
"23/10/17","22:40",0.0,14.1,83.7,1014.9,306.9,1.2,1.9,315.5,0.00,11.4,18.0,"22:35:12",1
"23/10/17","22:50",0.0,13.9,83.7,1014.9,309.8,1.3,2.1,326.6,0.00,11.2,18.1,"22:41:20",1
"23/10/17","23:00",0.0,14.1,84.0,1014.9,314.7,2.0,2.9,317.5,0.00,11.5,18.3,"22:57:30",1
"23/10/17","23:10",0.0,14.2,83.9,1015.2,299.6,1.6,2.5,304.9,0.00,11.6,18.0,"23:02:16",1
"23/10/17","23:20",0.0,14.2,84.0,1014.9,304.2,1.7,3.3,316.2,0.00,11.6,18.2,"23:18:08",1
"23/10/17","23:30",0.0,14.0,84.0,1015.2,323.3,1.8,2.6,327.2,0.00,11.4,18.2,"23:27:48",1
"23/10/17","23:40",0.0,14.0,84.5,1015.2,301.8,2.0,2.9,339.1,0.00,11.5,18.0,"23:33:38",1
"23/10/17","23:50",0.0,13.9,85.1,1015.4,304.2,2.1,3.2,327.1,0.00,11.5,18.0,"23:49:06",1
"23/10/17","24:00",0.0,13.9,85.3,1014.7,315.8,2.2,3.5,318.3,0.00,11.5,17.9,"23:54:58",1
